Location: Jackson
(42.2460°N, 84.4010°W)
Time: 10:26:45
(UTC-04:00)

Injun/Solrad 3 - Pass Details

Date: 17 February 2026
Orbit: 871 x 985 km, 66.8° (Epoch: 16 March)

Event Time Altitude Azimuth Distance (km) Brightness Sun altitude
Rises 21:47:47 0° 321° (NW) 3,589 11.7 -39.8°
Reaches altitude 10° 21:50:30 10° 312° (NW) 2,659 10.9 -40.3°
Enters shadow 21:54:08 28° 283° (WNW) 1,691 9.6 -40.9°
